Location: Unspecified
(22.6800°N, 112.2000°E)
Time: 07:13:15
(UTC+08:00)

Courier 1B Rocket - Pass Details

Date: 08 August 2021
Orbit: 920 x 1202 km, 28.3° (Epoch: 22 September)

Event Time Altitude Azimuth Distance (km) Brightness Sun altitude
Rises 21:42:44 0° 243° (WSW) 4,089 8.5 -32.5°
Reaches altitude 10° 21:45:37 10° 242° (WSW) 3,118 7.8 -33.0°
Enters shadow 21:50:58 47° 229° (SW) 1,511 5.9 -34.0°
